LEMUR-2-LUCYBRYCE

Last updated on Wed Feb 14 2018 16:20:44 GMT+0000 (Coordinated Universal Time)

1 42773U 17036J 18045.41312686 .00002099 00000-0 97553-4 0 9992 2 42773 97.4191 106.9209 0015936 131.2672 228.9939 15.20983497 35849
UTC large
Height (km)
Speed (km/s)
/
Latitude / Longitude
Inclination (degrees)
Orbital Period (minutes)
Azimuth
Elevation
Range (km)
Doppler Factor

Next 0 passes for location: London (51.5072 / 0.1276)

Sorry there are no passes over London.